Overview Statistics Trail Chart Weather Telemetry Raw packets
 

This is the latest recevied weather packets stored in our database for station/object 4S6DRJ-13. If no packets are shown the sender has not sent any weather packets the latest 10 day(s).

<< 553 554 555 556 557 558 559 >>
Time Temp. Humidity Pressure Rain* Wind** Luminosity Snow
1787596294 27.22° C 86% 1011.5 hPa 0 mm 1.34 m/s, 180° 0 W/m² -
1787596233 27.22° C 86% 1011.3 hPa 0 mm 1.34 m/s, 196° 0 W/m² -
1787596172 27.22° C 85% 1011.2 hPa 0 mm 0.45 m/s, 150° 0 W/m² -
1787596111 27.22° C 85% 1011.3 hPa 0 mm 0.89 m/s, 173° 0 W/m² -
1787596050 27.22° C 85% 1011.3 hPa 0 mm 1.34 m/s, 241° 0 W/m² -
1787595989 27.22° C 85% 1011.3 hPa 0 mm 1.34 m/s, 197° 0 W/m² -
1787595928 27.22° C 85% 1011.4 hPa 0 mm 0.89 m/s, 193° 0 W/m² -
1787595867 27.22° C 85% 1011.4 hPa 0 mm 0.89 m/s, 145° 0 W/m² -
1787595806 27.22° C 85% 1011.4 hPa 0 mm 1.34 m/s, 184° 0 W/m² -
1787595745 27.22° C 84% 1011.6 hPa 0 mm 1.34 m/s, 179° 0 W/m² -
1787595684 27.22° C 84% 1011.4 hPa 0 mm 0.89 m/s, 189° 0 W/m² -
1787595624 27.22° C 84% 1011.2 hPa 0 mm 1.79 m/s, 158° 0 W/m² -
1787595562 27.22° C 84% 1011.4 hPa 0 mm 0.89 m/s, 196° 0 W/m² -
1787595502 27.22° C 84% 1011.4 hPa 0 mm 1.34 m/s, 192° 0 W/m² -
1787595440 27.22° C 84% 1011.4 hPa 0 mm 0.45 m/s, 233° 0 W/m² -
1787595379 27.22° C 84% 1011.5 hPa 0 mm 0.45 m/s, 159° 0 W/m² -
1787595318 27.22° C 84% 1011.4 hPa 0 mm 0.45 m/s, 171° 0 W/m² -
1787595257 27.22° C 84% 1011.4 hPa 0 mm 2.24 m/s, 208° 0 W/m² -
1787595196 27.22° C 84% 1011.4 hPa 0 mm 0.45 m/s, 221° 0 W/m² -
1787595135 27.22° C 84% 1011.5 hPa 0 mm 0.89 m/s, 236° 0 W/m² -
1787595075 27.22° C 83% 1011.5 hPa 0 mm 1.79 m/s, 171° 0 W/m² -
1787595013 27.22° C 84% 1011.5 hPa 0 mm 0.45 m/s, 256° 0 W/m² -
1787594953 27.22° C 83% 1011.3 hPa 0 mm 1.34 m/s, 219° 0 W/m² -
1787594891 27.22° C 83% 1011.5 hPa 0 mm 0.89 m/s, 231° 0 W/m² -
1787594830 27.22° C 83% 1011.6 hPa 0 mm 1.79 m/s, 252° 0 W/m² -

* Rain latest hour (hover to see other rain measurements)
** Current wind speed in m/s (hover to see current wind gust speed)